FW6341 Weather Reports


time (UTC)temp
C
wind
direction
speed
KPH
gust
KPH
rain 1hr
cm
rain 24hr
cm
rain mn
cm
humidity
%
barometer
mb
20260503181611 25 168 1.6 1.6 0.00 0.00 0.00 50 1012.0
20260503181108 25 109 0.0 0.0 0.00 0.00 0.00 53 1012.1
20260503180605 24 314 1.6 1.6 0.00 0.00 0.00 52 1012.1
20260503180103 23 127 0.0 0.0 0.00 0.00 0.00 55 1012.0
20260503175559 23 155 1.6 1.6 0.00 0.00 0.00 57 1012.2
20260503175056 22 328 0.0 0.0 0.00 0.00 0.00 56 1012.3
20260503174553 22 99 1.6 1.6 0.00 0.00 0.00 57 1012.6
20260503174050 22 275 3.2 3.2 0.00 0.00 0.00 59 1012.3
20260503173545 21 44 1.6 1.6 0.00 0.00 0.00 60 1012.4
20260503173041 21 251 0.0 1.6 0.00 0.00 0.00 61 1012.6
20260503172539 20 146 1.6 1.6 0.00 0.00 0.00 62 1012.6
20260503172036 20 287 1.6 1.6 0.00 0.00 0.00 63 1012.7
20260503171532 20 266 1.6 1.6 0.00 0.00 0.00 63 1012.6
20260503171030 20 95 0.0 1.6 0.00 0.00 0.00 66 1012.8
20260503170526 19 86 1.6 1.6 0.00 0.00 0.00 67 1012.7
20260503150918 12 111 0.0 0.0 0.00 0.00 0.00 99 1013.3
20260503150415 12 111 0.0 0.0 0.00 0.00 0.00 99 1013.2
20260503131302 8 117 0.0 0.0 0.00 0.00 0.00 99 1012.6
20260503130759 8 117 0.0 0.0 0.00 0.00 0.00 99 1012.5
20260503130257 8 118 0.0 0.0 0.00 0.00 0.00 99 1012.7
20260503110651 10 105 0.0 0.0 0.00 0.00 0.00 99 1012.9
20260503110148 10 105 0.0 0.0 0.00 0.00 0.00 99 1013.0
20260503100114 11 105 0.0 0.0 0.00 0.00 0.00 99 1012.9
20260503081504 12 105 0.0 0.0 0.00 0.00 0.00 97 1013.1
20260503081001 12 105 0.0 0.0 0.00 0.00 0.00 97 1013.1
20260503080457 12 105 0.0 0.0 0.00 0.00 0.00 97 1013.1
20260503072933 12 105 0.0 0.0 0.00 0.00 0.00 96 1013.3
20260503072431 12 105 0.0 0.0 0.00 0.00 0.00 96 1013.5
20260503071928 12 105 0.0 0.0 0.00 0.00 0.00 96 1013.4
20260503071425 12 105 0.0 0.0 0.00 0.00 0.00 96 1013.6
20260503070921 12 105 0.0 0.0 0.00 0.00 0.00 96 1013.4
20260503070418 13 105 0.0 0.0 0.00 0.00 0.00 95 1013.3
20260503060338 14 104 0.0 0.0 0.00 0.03 0.03 93 1013.2
20260503054826 14 104 0.0 0.0 0.00 0.03 0.03 92 1013.6
20260503054322 14 104 0.0 0.0 0.00 0.03 0.03 92 1013.4
20260503053820 14 104 0.0 0.0 0.00 0.03 0.03 92 1013.2
20260503053318 15 104 0.0 0.0 0.00 0.03 0.03 91 1012.9
20260503052814 15 104 0.0 0.0 0.00 0.03 0.03 91 1012.8
20260503052311 15 104 0.0 0.0 0.00 0.03 0.03 91 1012.9
20260503051807 15 104 0.0 0.0 0.00 0.03 0.03 90 1012.9
20260503051303 15 104 0.0 0.0 0.00 0.03 0.03 89 1012.9
20260503050800 15 104 0.0 0.0 0.00 0.03 0.03 89 1013.2
20260503050256 15 104 0.0 0.0 0.00 0.03 0.03 89 1013.2
20260503045754 15 104 0.0 0.0 0.00 0.03 0.03 89 1013.1
20260503045252 15 103 0.0 1.6 0.00 0.03 0.03 89 1013.0
20260503044748 15 104 0.0 0.0 0.00 0.03 0.03 89 1013.4
20260503044245 15 104 0.0 0.0 0.00 0.03 0.03 89 1013.2
20260503043742 15 104 0.0 0.0 0.00 0.03 0.03 88 1013.4
20260503043239 15 104 0.0 0.0 0.00 0.03 0.03 88 1013.5
20260503042735 15 104 0.0 0.0 0.00 0.03 0.03 87 1013.2
20260503042232 16 104 0.0 0.0 0.00 0.03 0.03 87 1013.6
20260503041728 16 104 0.0 0.0 0.00 0.03 0.03 86 1013.3
20260503041226 16 104 0.0 0.0 0.00 0.03 0.03 86 1013.4
20260503040723 16 104 0.0 0.0 0.00 0.03 0.03 86 1013.2
20260503040221 16 104 0.0 0.0 0.00 0.03 0.03 85 1013.2
20260503035717 16 104 0.0 0.0 0.00 0.03 0.03 85 1013.0
20260503035215 16 104 0.0 0.0 0.00 0.03 0.03 84 1013.3
20260503034712 16 104 0.0 0.0 0.00 0.03 0.03 83 1013.2
20260503034209 16 104 0.0 0.0 0.00 0.03 0.03 83 1013.0
20260503033706 16 104 0.0 0.0 0.00 0.03 0.03 82 1013.3
20260503033204 17 104 0.0 0.0 0.00 0.03 0.03 82 1013.3
20260503032702 17 104 0.0 0.0 0.00 0.03 0.03 81 1013.0
20260503032200 17 104 0.0 0.0 0.00 0.03 0.03 80 1013.0
20260503031657 17 104 0.0 0.0 0.00 0.03 0.03 80 1013.0
20260503031155 17 104 0.0 0.0 0.00 0.03 0.03 79 1013.0
20260503030650 17 106 0.0 0.0 0.00 0.03 0.03 78 1013.1
20260503030148 17 140 0.0 0.0 0.00 0.03 0.03 78 1013.1
20260503025644 17 103 0.0 0.0 0.00 0.03 0.03 77 1012.8
20260503025142 17 85 1.6 1.6 0.00 0.03 0.03 77 1013.0
20260503024638 18 128 0.0 0.0 0.00 0.03 0.03 77 1012.8
20260503024136 18 122 0.0 0.0 0.00 0.03 0.03 76 1012.8
20260503023633 18 140 0.0 1.6 0.00 0.03 0.03 76 1012.9
20260503023130 19 124 1.6 1.6 0.00 0.03 0.03 74 1012.9
20260503022625 20 126 1.6 1.6 0.00 0.03 0.03 72 1012.7
20260503022120 20 112 0.0 0.0 0.00 0.03 0.03 70 1012.5
20260503021618 20 169 1.6 1.6 0.00 0.03 0.03 69 1012.8
20260503021114 20 90 1.6 1.6 0.00 0.03 0.03 68 1012.7
20260503020611 20 110 0.0 1.6 0.00 0.03 0.03 69 1012.4
20260503020109 20 145 0.0 0.0 0.00 0.03 0.03 68 1012.3
20260503015605 20 110 0.0 0.0 0.00 0.03 0.03 67 1012.1
20260503015102 20 122 0.0 0.0 0.00 0.03 0.03 67 1011.9
20260503014558 20 111 0.0 1.6 0.00 0.03 0.03 66 1012.0
20260503014056 21 110 0.0 0.0 0.00 0.03 0.03 67 1011.8
20260503013553 21 115 0.0 0.0 0.00 0.03 0.03 66 1011.9
20260503013051 21 126 0.0 0.0 0.00 0.03 0.03 64 1011.8
20260503012548 21 158 0.0 0.0 0.00 0.03 0.03 66 1011.8
20260503012044 21 149 0.0 0.0 0.00 0.03 0.03 65 1011.9
20260503011541 21 152 0.0 0.0 0.00 0.03 0.03 65 1011.8
20260503011038 21 153 0.0 0.0 0.00 0.03 0.03 65 1011.9
20260503010534 21 153 0.0 0.0 0.00 0.03 0.03 66 1011.7
20260503010032 21 153 0.0 0.0 0.00 0.03 0.03 63 1011.6
20260503005529 21 131 0.0 1.6 0.00 0.03 0.03 63 1011.8
20260503005026 21 163 0.0 0.0 0.00 0.03 0.03 64 1011.8
20260503004522 21 165 0.0 1.6 0.00 0.03 0.03 62 1012.0
20260503004021 21 155 0.0 0.0 0.00 0.03 0.03 61 1012.0
20260503003517 22 124 0.0 0.0 0.00 0.03 0.03 61 1011.8
20260503003014 22 126 0.0 0.0 0.00 0.03 0.03 62 1011.8
20260503002511 21 104 0.0 1.6 0.00 0.03 0.03 61 1012.0
20260503002008 21 155 0.0 0.0 0.00 0.03 0.03 61 1011.8
20260503001504 21 165 0.0 1.6 0.00 0.03 0.03 61 1012.0
20260503001002 21 156 0.0 0.0 0.00 0.03 0.03 62 1011.7
20260503000459 21 93 0.0 1.6 0.00 0.03 0.03 61 1012.1
20260502235956 21 194 3.2 3.2 0.00 0.03 0.03 61 1012.0
20260502235452 21 138 0.0 0.0 0.00 0.03 0.03 63 1012.0
20260502234950 21 289 3.2 4.8 0.00 0.03 0.03 60 1011.9
20260502234446 21 115 0.0 0.0 0.00 0.03 0.03 63 1012.0
20260502233944 21 98 0.0 0.0 0.00 0.03 0.03 70 1012.1
20260502233439 21 284 1.6 1.6 0.00 0.03 0.03 62 1012.1
20260502232936 21 12 1.6 1.6 0.00 0.03 0.03 63 1012.3
20260502232432 21 301 0.0 0.0 0.00 0.03 0.03 63 1012.2
20260502231929 21 304 1.6 1.6 0.00 0.03 0.03 61 1012.4
20260502231427 21 272 3.2 3.2 0.00 0.03 0.03 62 1012.3
20260502230925 21 182 3.2 3.2 0.00 0.03 0.03 62 1012.5
20260502230422 21 205 1.6 1.6 0.00 0.03 0.03 62 1012.6
20260502225920 21 251 1.6 1.6 0.00 0.03 0.03 63 1012.7
20260502225416 21 305 1.6 1.6 0.00 0.03 0.03 64 1012.6
20260502224913 21 142 0.0 0.0 0.00 0.03 0.03 61 1012.8
20260502224409 21 162 0.0 1.6 0.00 0.03 0.03 61 1012.9
20260502223906 21 121 0.0 1.6 0.00 0.03 0.03 61 1013.0
20260502223404 21 98 0.0 0.0 0.00 0.03 0.03 62 1013.3
20260502222902 21 293 4.8 4.8 0.00 0.03 0.03 61 1013.2
20260502222359 21 192 1.6 1.6 0.00 0.03 0.03 61 1013.4
20260502221854 21 76 1.6 3.2 0.00 0.03 0.03 60 1013.5
20260502221351 21 104 0.0 1.6 0.00 0.03 0.03 61 1013.5
20260502220849 21 300 1.6 3.2 0.00 0.03 0.03 61 1013.8
20260502220344 21 142 0.0 0.0 0.00 0.03 0.03 61 1013.7
20260502215841 21 172 1.6 1.6 0.00 0.03 0.03 62 1013.9
20260502215339 21 112 0.0 0.0 0.00 0.03 0.03 61 1013.9
20260502214835 20 164 0.0 0.0 0.00 0.03 0.03 61 1014.1
20260502214332 20 169 0.0 0.0 0.00 0.03 0.03 63 1014.1
20260502213829 20 273 0.0 1.6 0.00 0.03 0.03 62 1014.1
20260502213326 20 173 0.0 1.6 0.00 0.03 0.03 63 1014.4
20260502212825 20 108 0.0 0.0 0.00 0.03 0.03 64 1014.2
20260502212323 20 143 0.0 0.0 0.00 0.03 0.03 62 1014.2
20260502211820 20 69 1.6 1.6 0.00 0.03 0.03 65 1014.2
20260502211310 20 224 1.6 1.6 0.00 0.03 0.03 63 1014.2
20260502210808 20 270 1.6 1.6 0.00 0.03 0.03 63 1014.5
20260502210305 19 107 0.0 1.6 0.00 0.03 0.03 66 1014.7
20260502205802 19 106 1.6 1.6 0.00 0.03 0.03 66 1014.9
20260502205258 20 265 3.2 3.2 0.00 0.03 0.03 64 1014.9
20260502204755 20 161 1.6 1.6 0.00 0.03 0.03 66 1015.0
20260502204252 19 156 0.0 0.0 0.00 0.03 0.03 66 1015.0
20260502203749 18 157 0.0 0.0 0.00 0.03 0.03 67 1014.9
20260502203242 18 121 0.0 0.0 0.00 0.03 0.03 70 1015.0
20260502202741 18 135 0.0 1.6 0.00 0.03 0.03 67 1015.2
20260502202240 17 11 1.6 1.6 0.00 0.03 0.03 70 1015.2
20260502201738 18 253 1.6 1.6 0.00 0.03 0.03 67 1015.2
20260502201233 18 102 0.0 0.0 0.00 0.03 0.03 69 1015.4
20260502200730 18 89 0.0 1.6 0.00 0.03 0.03 67 1015.1
20260502200226 17 172 0.0 1.6 0.00 0.03 0.03 69 1015.5
20260502195725 17 173 1.6 1.6 0.00 0.03 0.03 70 1015.4
20260502195221 17 150 0.0 0.0 0.00 0.03 0.03 69 1015.5
20260502194717 17 125 0.0 1.6 0.00 0.03 0.03 69 1015.6
20260502194215 17 182 0.0 1.6 0.00 0.03 0.03 72 1015.6
20260502193710 16 180 1.6 3.2 0.00 0.03 0.03 72 1015.7
20260502193208 17 183 1.6 3.2 0.00 0.03 0.03 72 1015.4
20260502192703 17 141 0.0 0.0 0.00 0.03 0.03 72 1015.8
20260502192200 16 171 1.6 1.6 0.00 0.03 0.03 74 1015.8
20260502191657 15 143 1.6 1.6 0.00 0.03 0.03 75 1015.9
20260502191155 15 279 1.6 3.2 0.00 0.03 0.03 76 1015.9
20260502190652 15 136 1.6 1.6 0.00 0.03 0.03 80 1015.7
20260502190150 15 257 0.0 1.6 0.00 0.03 0.03 78 1016.1
20260502185644 14 151 0.0 0.0 0.00 0.03 0.03 81 1015.8
20260502185141 14 142 0.0 1.6 0.00 0.03 0.03 81 1016.1
20260502184637 13 143 0.0 0.0 0.00 0.03 0.03 82 1015.8
20260502184133 13 9 1.6 1.6 0.00 0.03 0.03 81 1015.7
20260502183629 13 107 0.0 0.0 0.00 0.03 0.03 82 1016.0
20260502183120 13 151 0.0 1.6 0.00 0.03 0.03 82 1015.8
20260502182615 13 94 0.0 1.6 0.00 0.03 0.03 83 1016.0
20260502182111 13 138 0.0 1.6 0.00 0.03 0.03 83 1016.3